Showing default

NAPA-2, 48963

Orbit data source: Space-Track

NAPA-2, 48963 is a payload satellite owned by RTAF (TH) in SSO that was launched on Wed, 30 Jun 2021 UTC via an FALCON 9 launch vehicle from the Air Force Eastern Test Range (AFETR). Payload-class satellites include a variety of spacecraft equipped with specific instruments for various scientific and technological missions. These include communications satellites like Starlink; space stations such as the ISS; scientific satellites like the Hubble; Earth observation satellites from companies like Planet Labs, Umbra, and HawkEye 360; GPS; miniature CubeSats for education and research; and military/defense satellites.

Loading next visibility...
Identifier
48963, 2021-059CN
Orbit
SSO
Country
Flag of THTH / THAI
Related business
Manufacturer
ISIS BV
Mission
Operational Defense Imaging
Bus & Motor
CUBESAT 6U, Unknown motor
Mass
10 kg wet, 10 kg dry
Launch date (UTC)
2021-06-30 (5 years ago)
Launch vehicle
FALCON 9
Launch site
Air Force Eastern Test Range (AFETR)
Object type
Payload
Rocket body
Debris
Shape & HBR
Box, 0.1 m
Radar Cross Section
0.080 m², Medium (>0.1 m² and < 1m²)

Expand to show TLE details & history
Last TLE update: 5 hours ago

TLE from 5 hours ago
0 NAPA-2
1 48963U 21059CN  26095.24499459  .00129892  00000-0  81580-3 0  9991
2 48963  97.6826 285.4856 0003977 221.9303 138.1658 15.76355518266253
Epoch: 2026-04-05T05:52Z
TLE epoch observation values (Epoch: 2026-04-05T05:52:47.532Z)
Latitude
0.00001°
Longitude
3.73436°
Altitude
345.927 km
Speed
7.7 km/s
True Right ascension
19h 01m 56s
True Declination
0° 00' 00"
Sunlit
Object was in daylight at epoch
Visualization orbit readout
Latitude
Unknown
Longitude
Unknown
Altitude
Unknown
Speed
Unknown
Apparent Right ascension
Unknown
Apparent Declination
Unknown
Sunlit
N/A
Visualization observer readout
Local Sidereal Time
17:03:34
Azimuth
Unknown
Elevation
Unknown
Doppler factor
Unknown
Orbital elements
Apogee altitude
340.351 km
Perigee altitude
335.009 km
Semi-major axis
6,715.817 km
Eccentricity
0.0004
Inclination
97.6826°
RAAN
285.4856°
Arg. of periapsis
221.9303°
True anomaly
138.19618°
Mean anomaly
138.1658°
Eccentric anomaly
138.18099°
Mean motion
3.94362 °/min
Orbital period
91.29 mins
BSTAR
0.0008158
Loading maneuver chart data...
Computing Atmospheric mass density...

Documentation

Showing up to 5 results
|